H1 CPF 2 NER 2025 10 12 9 285 01 glonass129 H2 1106402 9129 37868 2025 10 12 0 0 0 2025 10 15 23 45 0 900 1 1 0 0 0 1 H9 10 0 60960 0.00000 0 7666967.774 22460770.323 9462154.660 10 0 60960 900.00000 0 7106493.223 21236917.961 12303675.496 10 0 60960 1800.00000 0 6263261.480 19785728.378 14907417.224 10 0 60960 2700.00000 0 5124038.733 18167138.419 17223103.633 10 0 60960 3600.00000 0 3688130.326 16444475.450 19206007.245 10 0 60960 4500.00000 0 1967670.297 14681844.638 20817798.094 10 0 60960 5400.00000 0 -12622.443 12941503.829 22027272.886 10 0 60960 6300.00000 0 -2216212.639 11281333.579 22810951.789 10 0 60960 7200.00000 0 -4596012.067 9752505.933 23153532.189 10 0 60960 8100.00000 0 -7096087.900 8397447.467 23048191.047 10 0 60960 9000.00000 0 -9653748.097 7248180.302 22496729.800 10 0 60960 9900.00000 0 -12201920.264 6325109.685 21509558.141 10 0 60960 10800.00000 0 -14671728.075 5636308.756 20105515.580 10 0 60960 11700.00000 0 -16995160.692 5177331.042 18311532.338 10 0 60960 12600.00000 0 -19107725.900 4931559.666 16162133.899 10 0 60960 13500.00000 0 -20950977.486 4871080.129 13698796.494 10 0 60960 14400.00000 0 -22474811.574 4958041.539 10969163.719 10 0 60960 15300.00000 0 -23639435.209 5146450.415 8026137.585 10 0 60960 16200.00000 0 -24416923.415 5384322.420 4926860.176 10 0 60960 17100.00000 0 -24792297.522 5616101.472 1731604.914 10 0 60960 18000.00000 0 -24764077.345 5785243.557 -1497401.088 10 0 60960 18900.00000 0 -24344282.000 5836854.640 -4697200.015 10 0 60960 19800.00000 0 -23557877.632 5720269.003 -7805346.624 10 0 60960 20700.00000 0 -22441694.263 5391456.237 -10761145.761 10 0 60960 21600.00000 0 -21042857.056 4815152.066 -13506857.891 10 0 60960 22500.00000 0 -19416798.503 3966619.807 -15988847.007 10 0 60960 23400.00000 0 -17624936.370 2832965.178 -18158646.343 10 0 60960 24300.00000 0 -15732116.800 1413946.532 -19973919.410 10 0 60960 25200.00000 0 -13803931.951 -277755.482 -21399296.216 10 0 60960 26100.00000 0 -11904026.849 -2216821.300 -22407067.574 10 0 60960 27000.00000 0 -10091510.108 -4366117.404 -22977723.688 10 0 60960 27900.00000 0 -8418578.210 -6678028.084 -23100326.817 10 0 60960 28800.00000 0 -6928453.347 -9096237.523 -22772711.495 10 0 60960 29700.00000 0 -5653720.791 -11557886.693 -22001509.520 10 0 60960 30600.00000 0 -4615134.173 -13996013.894 -20802000.632 10 0 60960 31500.00000 0 -3820936.766 -16342176.030 -19197793.277 10 0 60960 32400.00000 0 -3266724.595 -18529140.624 -17220343.299 10 0 60960 33300.00000 0 -2935854.150 -20493536.023 -14908321.362 10 0 60960 34200.00000 0 -2800374.467 -22178349.537 -12306842.877 10 0 60960 35100.00000 0 -2822441.385 -23535170.125 -9466576.561 10 0 60960 36000.00000 0 -2956151.827 -24526083.433 -6442749.920 10 0 60960 36900.00000 0 -3149718.719 -25125141.832 -3294071.686 10 0 60960 37800.00000 0 -3347893.398 -25319350.195 -81592.511 10 0 60960 38700.00000 0 -3494532.597 -25109128.423 3132473.964 10 0 60960 39600.00000 0 -3535201.618 -24508233.554 6285947.056 10 0 60960 40500.00000 0 -3419704.384 -23543146.574 9317869.513 10 0 60960 41400.00000 0 -3104434.606 -22251950.971 12169670.475 10 0 60960 42300.00000 0 -2554450.092 -20682750.711 14786279.714 10 0 60960 43200.00000 0 -1745184.006 -18891693.864 17117173.123 10 0 60960 44100.00000 0 -663721.906 -16940683.781 19117331.021 10 0 60960 45000.00000 0 690408.691 -14894872.130 20748092.369 10 0 60960 45900.00000 0 2304969.633 -12820036.578 21977890.080 10 0 60960 46800.00000 0 4155276.669 -10779950.312 22782854.513 10 0 60960 47700.00000 0 6204987.925 -8833850.813 23147274.425 10 0 60960 48600.00000 0 8407385.868 -7034111.229 23063906.890 10 0 60960 49500.00000 0 10707102.294 -5424209.631 22534129.998 10 0 60960 50400.00000 0 13042217.602 -4037079.566 21567934.572 10 0 60960 51300.00000 0 15346650.128 -2893910.146 20183753.659 10 0 60960 52200.00000 0 17552738.810 -2003445.816 18408131.219 10 0 60960 53100.00000 0 19593913.813 -1361815.780 16275234.209 10 0 60960 54000.00000 0 21407345.142 -952901.335 13826215.159 10 0 60960 54900.00000 0 22936459.225 -749227.067 11108435.346 10 0 60960 55800.00000 0 24133217.800 -713339.786 8174561.660 10 0 60960 56700.00000 0 24960062.474 -799618.191 5081553.254 10 0 60960 57600.00000 0 25391441.528 -956437.491 1889556.792 10 0 60960 58500.00000 0 25414852.577 -1128597.431 -1339268.296 10 0 60960 59400.00000 0 25031354.901 -1259910.106 -4541971.104 10 0 60960 60300.00000 0 24255527.754 -1295836.436 -7656052.090 10 0 60960 61200.00000 0 23114874.713 -1186057.339 -10620701.463 10 0 60960 62100.00000 0 21648698.212 -886867.995 -13378006.891 10 0 60960 63000.00000 0 19906491.358 -363290.910 -15874104.849 10 0 60960 63900.00000 0 17945915.283 409184.515 -18060250.985 10 0 60960 64800.00000 0 15830448.251 1443311.995 -19893786.856 10 0 60960 65700.00000 0 13626806.887 2739304.475 -21338982.806 10 0 60960 66600.00000 0 11402249.558 4284590.829 -22367739.666 10 0 60960 67500.00000 0 9221876.684 6054124.102 -22960135.324 10 0 60960 68400.00000 0 7146042.308 8011228.441 -23104805.752 10 0 60960 69300.00000 0 5227986.045 10108948.664 -22799153.788 10 0 60960 70200.00000 0 3511784.368 12291845.012 -22049382.716 10 0 60960 71100.00000 0 2030706.034 14498156.873 -20870355.363 10 0 60960 72000.00000 0 806038.760 16662243.805 -19285282.994 10 0 60960 72900.00000 0 -153566.177 18717200.902 -17325251.620 10 0 60960 73800.00000 0 -852206.928 20597538.604 -15028596.471 10 0 60960 74700.00000 0 -1306300.111 22241814.831 -12440138.204 10 0 60960 75600.00000 0 -1543627.322 23595109.792 -9610296.924 10 0 60960 76500.00000 0 -1601902.229 24611241.002 -6594102.192 10 0 60960 77400.00000 0 -1526921.205 25254627.194 -3450118.990 10 0 60960 78300.00000 0 -1370377.389 25501724.959 -239310.895 10 0 60960 79200.00000 0 -1187431.668 25341979.955 2976137.449 10 0 60960 80100.00000 0 -1034143.570 24778254.821 6134015.960 10 0 60960 81000.00000 0 -964870.328 23826717.702 9173280.349 10 0 60960 81900.00000 0 -1029743.147 22516197.448 12035216.914 10 0 60960 82800.00000 0 -1272325.977 20887033.306 14664559.579 10 0 60960 83700.00000 0 -1727554.245 18989467.415 17010539.176 10 0 60960 84600.00000 0 -2420039.146 16881646.717 19027846.370 10 0 60960 85500.00000 0 -3362808.041 14627316.489 20677491.308 10 0 60961 0.00000 0 -4556533.473 12293300.141 21927544.937 10 0 60961 900.00000 0 -5989284.316 9946866.762 22753749.586 10 0 60961 1800.00000 0 -7636809.065 7653096.808 23139986.406 10 0 60961 2700.00000 0 -9463343.526 5472348.982 23078593.286 10 0 60961 3600.00000 0 -11422910.243 3457934.681 22570525.186 10 0 60961 4500.00000 0 -13461059.004 1654093.921 21625353.743 10 0 60961 5400.00000 0 -15516978.840 94356.118 20261104.676 10 0 60961 6300.00000 0 -17525896.426 -1199646.356 18503934.260 10 0 60961 7200.00000 0 -19421663.241 -2218862.073 16387648.948 10 0 60961 8100.00000 0 -21139425.313 -2966972.551 13953075.112 10 0 60961 9000.00000 0 -22618264.886 -3460004.873 11247288.812 10 0 60961 9900.00000 0 -23803703.404 -3725419.900 8322718.598 10 0 60961 10800.00000 0 -24649960.023 -3800713.289 5236137.227 10 0 60961 11700.00000 0 -25121869.136 -3731587.495 2047561.015 10 0 60961 12600.00000 0 -25196374.078 -3569771.702 -1180921.924 10 0 60961 13500.00000 0 -24863531.596 -3370582.333 -4386371.195 10 0 60961 14400.00000 0 -24126982.326 -3190328.590 -7506236.468 10 0 60961 15300.00000 0 -23003865.207 -3083674.782 -10479596.664 10 0 60961 16200.00000 0 -21524177.868 -3101073.614 -13248369.791 10 0 60961 17100.00000 0 -19729608.947 -3286381.877 -15758467.660 10 0 60961 18000.00000 0 -17671891.411 -3674762.295 -17960870.804 10 0 60961 18900.00000 0 -15410746.672 -4290962.885 -19812600.836 10 0 60961 19800.00000 0 -13011507.016 -5148048.766 -21277569.884 10 0 60961 20700.00000 0 -10542517.618 -6246641.521 -22327289.635 10 0 60961 21600.00000 0 -8072428.583 -7574699.170 -22941425.861 10 0 60961 22500.00000 0 -5667491.732 -9107846.242 -23108187.827 10 0 60961 23400.00000 0 -3388976.137 -10810239.767 -22824545.693 10 0 60961 24300.00000 0 -1290810.677 -12635933.950 -22096272.764 10 0 60961 25200.00000 0 582448.411 -14530685.193 -20937813.107 10 0 60961 26100.00000 0 2197241.365 -16434120.483 -19371978.645 10 0 60961 27000.00000 0 3532154.355 -18282177.188 -17429483.201 10 0 60961 27900.00000 0 4578549.237 -20009711.105 -15148324.063 10 0 60961 28800.00000 0 5340650.381 -21553163.056 -12573024.563 10 0 60961 29700.00000 0 5835088.348 -22853172.293 -9753753.597 10 0 60961 30600.00000 0 6089922.889 -23857027.760 -6745340.200 10 0 60961 31500.00000 0 6143189.351 -24520855.486 -3606203.077 10 0 60961 32400.00000 0 6041032.163 -24811451.831 -397216.284 10 0 60961 33300.00000 0 5835505.850 -24707687.456 2819466.885 10 0 60961 34200.00000 0 5582137.341 -24201424.921 5981609.196 10 0 60961 35100.00000 0 5337352.678 -23297913.169 9028081.461 10 0 60961 36000.00000 0 5155876.257 -22015643.731 11900029.131 10 0 60961 36900.00000 0 5088211.371 -20385675.608 14541992.140 10 0 60961 37800.00000 0 5178306.951 -18450457.359 16902957.933 10 0 60961 38700.00000 0 5461507.439 -16262195.213 18937328.996 10 0 60961 39600.00000 0 5962870.876 -13880834.255 20605787.905 10 0 60961 40500.00000 0 6695925.112 -11371735.096 21876044.802 10 0 60961 41400.00000 0 7661914.238 -8803140.586 22723454.256 10 0 60961 42300.00000 0 8849567.379 -6243535.446 23131490.516 10 0 60961 43200.00000 0 10235400.935 -3759005.997 23092072.477 10 0 60961 44100.00000 0 11784543.699 -1410707.276 22605731.929 10 0 60961 45000.00000 0 13452052.950 747459.205 21681621.078 10 0 60961 45900.00000 0 15184669.483 2670862.042 20337357.881 10 0 60961 46800.00000 0 16922941.206 4325767.766 18598710.310 10 0 60961 47700.00000 0 18603629.190 5690512.229 16499123.520 10 0 60961 48600.00000 0 20162297.687 6756166.252 14079096.709 10 0 60961 49500.00000 0 21535981.048 7526666.738 11385419.479 10 0 60961 50400.00000 0 22665816.144 8018406.597 8470280.510 10 0 60961 51300.00000 0 23499529.350 8259299.489 5390264.350 10 0 60961 52200.00000 0 23993672.150 8287357.781 2205254.836 10 0 60961 53100.00000 0 24115509.219 8148843.136 -1022733.651 10 0 60961 54000.00000 0 23844476.898 7896067.968 -4230773.873 10 0 60961 54900.00000 0 23173147.874 7584941.510 -7356267.502 10 0 60961 55800.00000 0 22107658.798 7272365.860 -10338185.033 10 0 60961 56700.00000 0 20667580.646 7013594.359 -13118277.634 10 0 60961 57600.00000 0 18885235.706 6859666.669 -15642235.154 10 0 60961 58500.00000 0 16804489.148 6855031.803 -17860765.547 10 0 60961 59400.00000 0 14479065.951 7035462.294 -19730572.818 10 0 60961 60300.00000 0 11970464.460 7426349.925 -21215213.009 10 0 60961 61200.00000 0 9345555.278 8041456.790 -22285810.574 10 0 60961 62100.00000 0 6673967.413 8882175.433 -22921620.834 10 0 60961 63000.00000 0 4025372.419 9937329.712 -23110427.742 10 0 60961 63900.00000 0 1466781.160 11183524.454 -22848769.853 10 0 60961 64800.00000 0 -940033.364 12586028.448 -22141991.174 10 0 60961 65700.00000 0 -3140879.638 14100152.418 -21004117.263 10 0 60961 66600.00000 0 -5091160.759 15673062.700 -19457560.494 10 0 60961 67500.00000 0 -6757474.702 17245953.068 -17532661.812 10 0 60961 68400.00000 0 -8118737.271 18756482.314 -15267079.421 10 0 60961 69300.00000 0 -9166783.703 20141374.359 -12705037.750 10 0 60961 70200.00000 0 -9906427.056 21339071.346 -9896452.524 10 0 60961 71100.00000 0 -10354974.337 22292328.419 -6895949.963 10 0 60961 72000.00000 0 -10541223.931 22950641.805 -3761799.923 10 0 60961 72900.00000 0 -10503989.342 23272409.339 -554784.134 10 0 60961 73800.00000 0 -10290213.636 23226734.073 2662978.429 10 0 60961 74700.00000 0 -9952755.539 22794796.836 5829226.465 10 0 60961 75600.00000 0 -9547941.266 21970741.712 8882749.035 10 0 60961 76500.00000 0 -9132985.254 20762038.654 11764553.887 10 0 60961 77400.00000 0 -8763387.841 19189309.011 14418990.061 10 0 60961 78300.00000 0 -8490418.388 17285621.668 16794804.598 10 0 60961 79200.00000 0 -8358788.351 15095288.981 18846114.627 10 0 60961 80100.00000 0 -8404610.775 12672211.801 20533277.757 10 0 60961 81000.00000 0 -8653730.744 10077840.982 21823645.586 10 0 60961 81900.00000 0 -9120496.160 7378838.052 22692187.180 10 0 60961 82800.00000 0 -9807020.317 4644529.756 23121971.435 10 0 60961 83700.00000 0 -10702967.834 1944259.531 23104499.518 10 0 60961 84600.00000 0 -11785874.339 -655256.834 22639880.850 10 0 60961 85500.00000 0 -13021988.577 -3092463.859 21736848.505 10 0 60962 0.00000 0 -14367604.137 -5313283.916 20412612.567 10 0 60962 900.00000 0 -15770828.578 -7273125.676 18692551.676 10 0 60962 1800.00000 0 -17173716.766 -8938497.513 16609748.441 10 0 60962 2700.00000 0 -18514683.757 -10288162.434 14204373.026 10 0 60962 3600.00000 0 -19731096.004 -11313782.579 11522926.227 10 0 60962 4500.00000 0 -20761933.655 -12020026.431 8617354.119 10 0 60962 5400.00000 0 -21550411.865 -12424132.790 5544049.947 10 0 60962 6300.00000 0 -22046449.830 -12554948.637 2362761.743 10 0 60962 7200.00000 0 -22208881.717 -12451480.599 -864573.359 10 0 60962 8100.00000 0 -22007313.808 -12161020.782 -4075044.901 10 0 60962 9000.00000 0 -21423546.732 -11736926.533 -7206010.237 10 0 60962 9900.00000 0 -20452499.926 -11236149.090 -10196335.091 10 0 60962 10800.00000 0 -19102596.694 -10716617.359 -12987607.365 10 0 60962 11700.00000 0 -17395591.524 -10234589.807 -15525298.345 10 0 60962 12600.00000 0 -15365845.498 -9842088.978 -17759846.517 10 0 60962 13500.00000 0 -13059079.577 -9584529.711 -19647640.987 10 0 60962 14400.00000 0 -10530658.187 -9498643.568 -21151883.899 10 0 60962 15300.00000 0 -7843475.780 -9610789.036 -22243314.050 10 0 60962 16200.00000 0 -5065535.975 -9935719.994 -22900777.220 10 0 60962 17100.00000 0 -2267325.781 -10475864.920 -23111632.272 10 0 60962 18000.00000 0 480904.211 -11221147.023 -22871985.725 10 0 60962 18900.00000 0 3111839.327 -12149352.058 -22186751.291 10 0 60962 19800.00000 0 5563667.133 -13227027.046 -21069534.527 10 0 60962 20700.00000 0 7782403.929 -14410870.531 -19542346.359 10 0 60962 21600.00000 0 9723885.569 -15649554.161 -17635152.637 10 0 60962 22500.00000 0 11355341.444 -16885897.479 -15385270.001 10 0 60962 23400.00000 0 12656488.412 -18059303.111 -12836621.285 10 0 60962 24300.00000 0 13620102.004 -19108349.095 -10038866.190 10 0 60962 25200.00000 0 14252044.285 -19973428.931 -7046425.138 10 0 60962 26100.00000 0 14570750.507 -20599328.476 -3917416.090 10 0 60962 27000.00000 0 14606199.191 -20937631.942 -712525.392 10 0 60962 27900.00000 0 14398411.542 -20948856.897 2506165.303 10 0 60962 28800.00000 0 13995545.281 -20604229.829 5676373.506 10 0 60962 29700.00000 0 13451664.352 -19887029.107 8736809.205 10 0 60962 30600.00000 0 12824278.820 -18793440.262 11628344.884 10 0 60962 31500.00000 0 12171758.236 -17332888.712 14295140.822 10 0 60962 32400.00000 0 11550726.388 -15527836.537 16685705.463 10 0 60962 33300.00000 0 11013545.636 -13413051.671 18753872.043 10 0 60962 34200.00000 0 10605995.048 -11034379.276 20459674.317 10 0 60962 35100.00000 0 10365238.264 -8447065.052 21770106.102 10 0 60962 36000.00000 0 10318165.185 -5713698.179 22659751.387 10 0 60962 36900.00000 0 10480176.287 -2901856.897 23111273.832 10 0 60962 37800.00000 0 10854460.448 -81551.710 23115756.707 10 0 60962 38700.00000 0 11431797.242 2677430.561 22672886.652 10 0 60962 39600.00000 0 12190893.358 5308174.251 21790976.990 10 0 60962 40500.00000 0 13099241.071 7749166.213 20486828.871 10 0 60962 41400.00000 0 14114465.203 9946607.563 18785431.139 10 0 60962 42300.00000 0 15186104.635 11856410.538 16719502.583 10 0 60962 43200.00000 0 16257756.004 13445797.540 14328883.110 10 0 60962 44100.00000 0 17269491.520 14694435.141 11659783.340 10 0 60962 45000.00000 0 18160450.428 15595054.618 8763905.174 10 0 60962 45900.00000 0 18871495.480 16153531.744 5697448.799 10 0 60962 46800.00000 0 19347821.882 16388421.097 2520024.457 10 0 60962 47700.00000 0 19541407.239 16329963.322 -706510.135 10 0 60962 48600.00000 0 19413196.911 16018606.478 -3919263.640 10 0 60962 49500.00000 0 18934929.752 15503103.753 -7055551.534 10 0 60962 50400.00000 0 18090524.183 14838268.488 -10054137.253 10 0 60962 51300.00000 0 16876963.181 14082482.701 -12856447.886 10 0 60962 52200.00000 0 15304638.252 13295066.306 -15407738.525 10 0 60962 53100.00000 0 13397135.909 12533620.524 -17658180.441 10 0 60962 54000.00000 0 11190474.343 11851460.167 -19563849.957 10 0 60962 54900.00000 0 8731821.800 11295245.563 -21087597.292 10 0 60962 55800.00000 0 6077750.613 10902916.015 -22199777.403 10 0 60962 56700.00000 0 3292100.754 10702013.319 -22878828.172 10 0 60962 57600.00000 0 443543.300 10708466.685 -23111684.795 10 0 60962 58500.00000 0 -2397053.220 10925890.142 -22894022.893 10 0 60962 59400.00000 0 -5159342.699 11345421.237 -22230326.661 10 0 60962 60300.00000 0 -7776193.538 11946106.429 -21133782.006 10 0 60962 61200.00000 0 -10186240.675 12695815.178 -19625998.297 10 0 60962 62100.00000 0 -12336191.802 13552642.260 -17736565.697 10 0 60962 63000.00000 0 -14182793.044 14466737.325 -15502458.244 10 0 60962 63900.00000 0 -15694374.060 15382482.891 -12967295.740 10 0 60962 64800.00000 0 -16851910.699 16240927.717 -10180480.085 10 0 60962 65700.00000 0 -17649563.793 16982372.165 -7196223.863 10 0 60962 66600.00000 0 -18094674.700 17548996.326 -4072490.881 10 0 60962 67500.00000 0 -18207220.917 17887420.433 -869869.677 10 0 60962 68400.00000 0 -18018757.415 17951090.431 2349597.989 10 0 60962 69300.00000 0 -17570890.449 17702389.317 5523611.129 10 0 60962 70200.00000 0 -16913349.612 17114386.713 8590803.452 10 0 60962 71100.00000 0 -16101740.023 16172154.350 11491915.043 10 0 60962 72000.00000 0 -15195069.251 14873593.284 14170920.326 10 0 60962 72900.00000 0 -14253152.260 13229738.831 16576092.036 10 0 60962 73800.00000 0 -13334002.207 11264530.502 18660982.333 10 0 60962 74700.00000 0 -12491315.036 9014056.005 20385303.777 10 0 60962 75600.00000 0 -11772151.690 6525299.571 21715694.859 10 0 60962 76500.00000 0 -11214913.483 3854444.779 22626356.676 10 0 60962 77400.00000 0 -10847694.224 1064800.020 23099549.495 10 0 60962 78300.00000 0 -10687077.362 -1775570.073 23125940.167 10 0 60962 79200.00000 0 -10737428.490 -4596411.913 22704793.609 10 0 60962 80100.00000 0 -10990713.502 -7327945.277 21844003.998 10 0 60962 81000.00000 0 -11426851.358 -9903512.719 20559963.820 10 0 60962 81900.00000 0 -12014588.568 -12262108.058 18877271.537 10 0 60962 82800.00000 0 -12712860.898 -14350680.085 16828281.378 10 0 60962 83700.00000 0 -13472587.376 -16126116.128 14452501.693 10 0 60962 84600.00000 0 -14238823.181 -17556822.533 11795851.188 10 0 60962 85500.00000 0 -14953182.300 -18623835.149 8909785.459 10 0 60963 0.00000 0 -15556428.552 -19321411.944 5850309.444 10 0 60963 900.00000 0 -15991125.880 -19657081.707 2676892.276 10 0 60963 1800.00000 0 -16204234.167 -19651144.439 -548690.496 10 0 60963 2700.00000 0 -16149540.137 -19335644.586 -3763569.885 10 0 60963 3600.00000 0 -15789817.226 -18752858.769 -6905022.896 10 0 60963 4500.00000 0 -15098620.539 -17953362.344 -9911714.216 10 0 60963 5400.00000 0 -14061637.946 -16993757.137 -12724913.714 10 0 60963 6300.00000 0 -12677537.386 -15934157.774 -15289663.867 10 0 60963 7200.00000 0 -10958272.178 -14835544.735 -17555872.163 10 0 60963 8100.00000 0 -8928829.679 -13757098.108 -19479305.318 10 0 60963 9000.00000 0 -6626432.720 -12753626.813 -21022464.399 10 0 60963 9900.00000 0 -4099227.016 -11873203.700 -22155322.787 10 0 60963 10800.00000 0 -1404509.826 -11155107.688 -22855912.130 10 0 60963 11700.00000 0 1393425.249 -10628160.430 -23110744.989 10 0 60963 12600.00000 0 4225736.215 -10309527.603 -22915066.491 10 0 60963 13500.00000 0 7021670.149 -10204034.542 -22272931.117 10 0 60963 14400.00000 0 9711279.365 -10304023.642 -21197104.398 10 0 60963 15300.00000 0 12228102.587 -10589757.576 -19708792.938 10 0 60963 16200.00000 0 14511699.577 -11030349.138 -17837209.581 10 0 60963 17100.00000 0 16509934.339 -11585176.196 -15618983.723 10 0 60963 18000.00000 0 18180913.177 -12205719.942 -13097429.720 10 0 60963 18900.00000 0 19494498.806 -12837747.066 -10321688.909 10 0 60963 19800.00000 0 20433339.893 -13423742.458 -7345762.958 10 0 60963 20700.00000 0 20993375.829 -13905488.981 -4227458.191 10 0 60963 21600.00000 0 21183798.635 -14226685.278 -1027261.849 10 0 60963 22500.00000 0 21026476.415 -14335491.522 2192827.741 10 0 60963 23400.00000 0 20554865.039 -14186896.555 5370494.573 10 0 60963 24300.00000 0 19812455.593 -13744807.780 8444299.370 10 0 60963 25200.00000 0 18850824.019 -12983777.019 11354852.825 10 0 60963 26100.00000 0 17727365.228 -11890290.859 14045946.154 10 0 60963 27000.00000 0 16502806.482 -10463572.146 16465618.622 10 0 60963 27900.00000 0 15238603.353 -8715859.276 18567143.112 10 0 60963 28800.00000 0 13994325.965 -6672151.316 20309912.377 10 0 60963 29700.00000 0 12825143.193 -4369428.549 21660210.539 10 0 60963 30600.00000 0 11779508.311 -1855379.204 22591856.374 10 0 60963 31500.00000 0 10897141.245 813316.921 23086706.963 10 0 60963 32400.00000 0 10207390.564 3573079.419 23135012.595 10 0 60963 33300.00000 0 9728043.001 6355809.026 22735616.010 10 0 60963 34200.00000 0 9464630.288 9091464.298 21895991.509 10 0 60963 35100.00000 0 9410262.969 11710729.073 20632121.935 10 0 60963 36000.00000 0 9545999.432 14147662.275 18968214.166 10 0 60963 36900.00000 0 9841736.409 16342221.496 16936256.497 10 0 60963 37800.00000 0 10257585.493 18242556.241 14575424.165 10 0 60963 38700.00000 0 10745679.753 19806975.233 11931342.246 10 0 60963 39600.00000 0 11252335.905 21005504.949 9055218.151 10 0 60963 40500.00000 0 11720481.951 21820972.860 6002858.963 10 0 60963 41400.00000 0 12092248.001 22249568.334 2833591.611 10 0 60963 42300.00000 0 12311610.235 22300855.898 -390893.394 10 0 60963 43200.00000 0 12326974.691 21997238.763 -3607751.842 10 0 60963 44100.00000 0 12093589.394 21372894.104 -6754224.727 10 0 60963 45000.00000 0 11575680.000 20472224.468 -9768880.416 10 0 60963 45900.00000 0 10748215.585 19347890.917 -12592833.913 10 0 60963 46800.00000 0 9598226.925 18058511.784 -15170917.304 10 0 60963 47700.00000 0 8125618.830 16666125.730 -17452776.382 10 0 60963 48600.00000 0 6343440.032 15233528.030 -19393870.177 10 0 60963 49500.00000 0 4277597.640 13821594.504 -20956352.387 10 0 60963 50400.00000 0 1966027.335 12486707.844 -22109816.429 10 0 60963 51300.00000 0 -542646.066 11278396.264 -22831889.156 10 0 60963 52200.00000 0 -3190901.165 10237284.862 -23108661.705 10 0 60963 53100.00000 0 -5914489.805 9393446.093 -22934949.628 10 0 60963 54000.00000 0 -8644892.509 8765218.155 -22314378.257 10 0 60963 54900.00000 0 -11311956.104 8358539.648 -21259292.887 10 0 60963 55800.00000 0 -13846602.740 8166826.534 -19790497.038 10 0 60963 56700.00000 0 -16183497.132 8171394.126 -17936825.454 10 0 60963 57600.00000 0 -18263561.081 8342403.709 -15734561.690 10 0 60963 58500.00000 0 -20036231.320 8640291.292 -13226713.103 10 0 60963 59400.00000 0 -21461368.013 9017615.850 -10462158.626 10 0 60963 60300.00000 0 -22510736.301 9421247.153 -7494686.978 10 0 60963 61200.00000 0 -23169001.437 9794799.454 -4381944.812 10 0 60963 62100.00000 0 -23434198.619 10081207.547 -1184315.780 10 0 60963 63000.00000 0 -23317660.545 10225336.283 2036247.626 10 0 60963 63900.00000 0 -22843408.226 10176513.879 5217416.862 10 0 60963 64800.00000 0 -22047032.648 9890882.966 8297682.250 10 0 60963 65700.00000 0 -20974115.629 9333471.415 11217527.749 10 0 60963 66600.00000 0 -19678256.816 8479896.879 13920564.072 10 0 60963 67500.00000 0 -18218789.509 7317634.370 16354599.712 10 0 60963 68400.00000 0 -16658280.244 5846794.175 18472630.899 10 0 60963 69300.00000 0 -15059915.476 4080377.552 20233733.039 10 0 60963 70200.00000 0 -13484882.916 2043998.795 21603838.134 10 0 60963 71100.00000 0 -11989854.951 -224916.160 22556384.574 10 0 60963 72000.00000 0 -10624677.359 -2678423.251 23072827.862 10 0 60963 72900.00000 0 -9430358.109 -5259794.763 23143002.962 10 0 60963 73800.00000 0 -8437438.958 -7905625.667 22765331.283 10 0 60963 74700.00000 0 -7664817.233 -10548227.425 21946867.700 10 0 60963 75600.00000 0 -7119067.032 -13118212.832 20703185.477 10 0 60963 76500.00000 0 -6794288.905 -15547167.102 19058099.579 10 0 60963 77400.00000 0 -6672495.509 -17770296.084 17043231.646 10 0 60963 78300.00000 0 -6724518.653 -19728942.570 14697422.718 10 0 60963 79200.00000 0 -6911401.280 -21372866.187 12066002.806 10 0 60963 80100.00000 0 -7186217.398 -22662191.138 9199929.393 10 0 60963 81000.00000 0 -7496244.372 -23568939.154 6154809.957 10 0 60963 81900.00000 0 -7785396.423 -24078081.720 2989826.398 10 0 60963 82800.00000 0 -7996816.222 -24188065.415 -233418.045 10 0 60963 83700.00000 0 -8075513.875 -23910786.401 -3452106.649 10 0 60963 84600.00000 0 -7970939.748 -23271013.511 -6603447.309 10 0 60963 85500.00000 0 -7639379.699 -22305283.171 -9625915.166 99